TimeCST,TemperatureF,Dew PointF,Humidity,Sea Level PressureIn,VisibilityMPH,Wind Direction,Wind SpeedMPH,Gust SpeedMPH,PrecipitationIn,Events,Conditions,WindDirDegrees,DateUTC
12:15 AM,32.0,32.0,100,29.71,6.0,WNW,9.2,-,N/A,,Overcast,290,2013-02-27 06:15:00
12:35 AM,32.0,32.0,100,29.70,9.0,WNW,10.4,-,N/A,,Mostly Cloudy,300,2013-02-27 06:35:00
12:55 AM,32.0,32.0,100,29.70,10.0,WNW,10.4,17.3,N/A,,Overcast,300,2013-02-27 06:55:00
1:15 AM,32.0,32.0,100,29.71,10.0,WNW,10.4,17.3,N/A,,Overcast,290,2013-02-27 07:15:00
1:35 AM,32.0,32.0,100,29.71,10.0,WNW,12.7,16.1,N/A,,Overcast,290,2013-02-27 07:35:00
1:55 AM,32.0,32.0,100,29.70,10.0,WNW,12.7,20.7,N/A,,Overcast,300,2013-02-27 07:55:00
2:15 AM,32.0,32.0,100,29.70,10.0,WNW,11.5,17.3,N/A,,Mostly Cloudy,290,2013-02-27 08:15:00
2:35 AM,32.0,32.0,100,29.71,10.0,WNW,11.5,16.1,N/A,,Mostly Cloudy,300,2013-02-27 08:35:00
2:55 AM,32.0,32.0,100,29.71,10.0,WNW,9.2,-,N/A,,Scattered Clouds,290,2013-02-27 08:55:00
3:35 AM,32.0,32.0,100,29.72,1.5,West,6.9,-,0.18,Snow,Light Snow,280,2013-02-27 09:35:00
3:55 AM,32.0,32.0,100,29.71,1.5,WNW,8.1,-,0.31,Snow,Light Snow,290,2013-02-27 09:55:00
4:15 AM,32.0,32.0,100,29.72,2.5,WNW,8.1,-,0.01,Snow,Light Snow,290,2013-02-27 10:15:00
4:35 AM,32.0,32.0,100,29.73,5.0,WNW,8.1,-,0.02,Snow,Light Snow,290,2013-02-27 10:35:00
4:55 AM,32.0,32.0,100,29.74,5.0,WNW,8.1,-,0.02,Snow,Light Snow,290,2013-02-27 10:55:00
5:15 AM,32.0,32.0,100,29.74,7.0,WNW,6.9,-,N/A,,Overcast,290,2013-02-27 11:15:00
5:35 AM,32.0,32.0,100,29.74,3.0,West,5.8,-,0.01,Snow,Light Snow,280,2013-02-27 11:35:00
5:55 AM,32.0,32.0,100,29.75,2.5,West,8.1,-,0.06,Snow,Light Snow,280,2013-02-27 11:55:00
6:15 AM,32.0,32.0,100,29.76,3.0,West,5.8,-,0.02,Snow,Light Snow,270,2013-02-27 12:15:00
6:35 AM,32.0,32.0,100,29.76,3.0,West,5.8,-,0.04,Snow,Light Snow,270,2013-02-27 12:35:00
6:55 AM,32.0,32.0,100,29.77,3.0,West,5.8,-,0.06,Snow,Light Snow,270,2013-02-27 12:55:00
7:15 AM,32.0,32.0,100,29.77,2.5,West,5.8,-,N/A,Snow,Light Snow,270,2013-02-27 13:15:00
7:35 AM,32.0,32.0,100,29.78,4.0,West,5.8,-,N/A,Snow,Light Snow,270,2013-02-27 13:35:00
7:55 AM,32.0,32.0,100,29.78,2.5,West,5.8,-,0.01,Snow,Light Snow,270,2013-02-27 13:55:00
8:15 AM,32.0,32.0,100,29.79,2.0,West,8.1,-,0.01,Snow,Light Snow,280,2013-02-27 14:15:00
8:35 AM,32.0,32.0,100,29.78,2.0,West,8.1,-,0.03,Snow,Light Snow,280,2013-02-27 14:35:00
9:15 AM,32.0,32.0,100,29.79,1.2,West,9.2,-,0.04,Snow,Light Snow,280,2013-02-27 15:15:00
9:35 AM,32.0,32.0,100,29.79,2.0,West,8.1,-,0.05,Snow,Light Snow,270,2013-02-27 15:35:00
9:55 AM,32.0,32.0,100,29.79,2.0,West,9.2,18.4,0.06,Snow,Light Snow,280,2013-02-27 15:55:00
10:15 AM,32.0,32.0,100,29.79,1.8,WNW,9.2,16.1,0.02,Snow,Light Snow,290,2013-02-27 16:15:00
10:35 AM,32.0,32.0,100,29.79,1.2,WNW,9.2,16.1,0.09,Snow,Light Snow,290,2013-02-27 16:35:00
10:55 AM,32.0,32.0,100,29.80,1.5,WNW,10.4,-,0.15,Snow,Light Snow,290,2013-02-27 16:55:00
11:15 AM,32.0,32.0,100,29.80,1.0,WNW,13.8,17.3,0.04,Snow,Light Snow,290,2013-02-27 17:15:00
11:35 AM,32.0,30.2,93,29.81,1.2,WNW,11.5,20.7,0.13,Snow,Light Snow,300,2013-02-27 17:35:00
11:55 AM,32.0,30.2,93,29.81,3.0,West,10.4,20.7,0.16,Snow,Light Snow,280,2013-02-27 17:55:00
12:15 PM,32.0,30.2,93,29.81,2.0,WNW,13.8,19.6,0.03,Snow,Light Snow,290,2013-02-27 18:15:00
12:35 PM,32.0,32.0,100,29.81,1.0,West,8.1,-,0.17,Snow,Light Snow,280,2013-02-27 18:35:00
12:55 PM,32.0,32.0,100,29.80,2.0,West,8.1,-,0.22,Snow,Light Snow,280,2013-02-27 18:55:00
1:15 PM,32.0,32.0,100,29.80,1.5,West,9.2,18.4,0.04,Snow,Light Snow,280,2013-02-27 19:15:00
1:35 PM,32.0,32.0,100,29.81,1.5,WNW,8.1,16.1,0.09,Snow,Light Snow,290,2013-02-27 19:35:00
1:55 PM,32.0,32.0,100,29.81,2.0,WNW,11.5,18.4,0.14,Snow,Light Snow,290,2013-02-27 19:55:00
2:15 PM,32.0,32.0,100,29.81,4.0,West,6.9,16.1,N/A,Snow,Light Snow,280,2013-02-27 20:15:00
2:35 PM,32.0,28.4,87,29.81,5.0,WNW,10.4,-,N/A,Snow,Light Snow,290,2013-02-27 20:35:00
2:55 PM,32.0,28.4,87,29.82,5.0,West,13.8,19.6,0.01,Snow,Light Snow,280,2013-02-27 20:55:00
3:15 PM,32.0,28.4,87,29.83,4.0,WNW,11.5,21.9,N/A,Snow,Light Snow,290,2013-02-27 21:15:00
3:35 PM,32.0,30.2,93,29.84,3.0,WNW,10.4,19.6,N/A,Snow,Light Snow,290,2013-02-27 21:35:00
3:55 PM,32.0,30.2,93,29.84,2.0,West,11.5,19.6,0.02,Snow,Light Snow,280,2013-02-27 21:55:00
4:15 PM,32.0,30.2,93,29.85,2.0,WNW,11.5,18.4,N/A,,Mostly Cloudy,290,2013-02-27 22:15:00
4:35 PM,32.0,30.2,93,29.85,3.0,WNW,13.8,17.3,0.01,Snow,Light Snow,290,2013-02-27 22:35:00
4:55 PM,32.0,30.2,93,29.86,1.5,WNW,10.4,-,0.05,Snow,Light Snow,300,2013-02-27 22:55:00
5:15 PM,32.0,30.2,93,29.87,2.0,WNW,10.4,19.6,0.02,Snow,Light Snow,290,2013-02-27 23:15:00
5:35 PM,32.0,30.2,93,29.87,1.2,WNW,13.8,17.3,0.11,Snow,Light Snow,290,2013-02-27 23:35:00
5:55 PM,32.0,30.2,93,29.88,1.8,WNW,10.4,-,0.19,Snow,Light Snow,290,2013-02-27 23:55:00
6:15 PM,32.0,30.2,93,29.88,2.5,WNW,10.4,17.3,0.05,Snow,Light Snow,300,2013-02-28 00:15:00
6:35 PM,32.0,30.2,93,29.89,4.0,WNW,10.4,21.9,0.09,Snow,Light Snow,300,2013-02-28 00:35:00
6:55 PM,32.0,30.2,93,29.90,5.0,WNW,10.4,17.3,0.11,Snow,Light Snow,300,2013-02-28 00:55:00
7:15 PM,32.0,28.4,87,29.90,5.0,WNW,10.4,17.3,N/A,Snow,Light Snow,300,2013-02-28 01:15:00
7:35 PM,32.0,28.4,87,29.90,5.0,WNW,11.5,-,0.02,Snow,Light Snow,300,2013-02-28 01:35:00
8:15 PM,32.0,28.4,87,29.91,4.0,WNW,11.5,18.4,0.01,Snow,Light Snow,300,2013-02-28 02:15:00
8:35 PM,32.0,28.4,87,29.91,8.0,WNW,10.4,18.4,0.01,,Mostly Cloudy,300,2013-02-28 02:35:00
8:55 PM,32.0,28.4,87,29.91,8.0,WNW,10.4,20.7,0.01,,Mostly Cloudy,290,2013-02-28 02:55:00
9:15 PM,32.0,28.4,87,29.91,9.0,WNW,13.8,18.4,N/A,,Mostly Cloudy,300,2013-02-28 03:15:00
9:35 PM,32.0,28.4,87,29.92,8.0,WNW,11.5,18.4,N/A,,Mostly Cloudy,300,2013-02-28 03:35:00
9:55 PM,32.0,28.4,87,29.92,8.0,WNW,11.5,-,N/A,,Mostly Cloudy,290,2013-02-28 03:55:00
10:15 PM,32.0,28.4,87,29.92,8.0,WNW,10.4,16.1,N/A,,Overcast,300,2013-02-28 04:15:00
10:35 PM,32.0,28.4,87,29.92,8.0,WNW,11.5,-,N/A,,Overcast,300,2013-02-28 04:35:00
10:55 PM,32.0,28.4,87,29.92,8.0,WNW,10.4,16.1,N/A,,Overcast,300,2013-02-28 04:55:00
11:15 PM,32.0,28.4,87,29.92,8.0,WNW,11.5,-,N/A,,Overcast,300,2013-02-28 05:15:00
11:35 PM,32.0,28.4,87,29.91,9.0,WNW,10.4,-,N/A,,Overcast,300,2013-02-28 05:35:00